Satellite: FENGYUN 1D
Catalog number: 27431
Epoch time:      103057.19194712
Element set:     224 
Inclination:       98.7688 deg
RA of node:       105.9692 deg
Eccentricity:    0.0016106
Arg of perigee:   102.1818 deg
Mean anomaly:     258.1157 deg
Mean motion:   14.09178323 rev/day
Decay rate:   -6.3999E-007 rev/day^2
Epoch rev:            4044
Checksum:              319

Satellite: NOAA 17
Catalog number: 27453
Epoch time:  Element set:     316 
Inclination:       98.7549 deg
RA of node:       128.0490 deg
Eccentricity:    0.0011413
Arg of perigee:   339.9182 deg
Mean anomaly:      20.1542 deg
Mean motion:   14.23297948 rev/day
Decay rate:    2.2100E-006 rev/day^2
Epoch rev:            3500
Checksum:              300

Satellite: HOT BIRD 6
Catalog number: 27499
Epoch time:      103054.87288413
Element set:     70 
Inclination:        0.0150 deg
RA of node:       173.7812 deg
Eccentricity:    0.0009015
Arg of perigee:   197.5701 deg
Mean anomaly:     109.1063 deg
Mean motion:    1.00270140 rev/day
Decay rate:    7.5000E-007 rev/day^2
Epoch rev:             188
Checksum:              258

Satellite: RUBIN 2
Catalog number: 27605
Epoch time:      103057.39626008
Element set:     68 
Inclination:       64.5550 deg
RA of node:       173.4716 deg
Eccentricity:    0.0036013
Arg of perigee:   110.6772 deg
Mean anomaly:     249.8189 deg
Mean motion:   14.71383650 rev/day
Decay rate:    3.7499E-006 rev/day^2
Epoch rev:             996
Checksum:              325


Read previous mail | Read next mail


 13.09.2026 07:38:59lGo back Go up